Flight Track Log - Related Links

Times and Time Zones

All times are in EDT time to prevent confusion due to time zone crossing. See the CTL17 flight status page for this flight to view local times or setup timezone preferences in your user account.

Time Position Orientation Groundspeed Altitude Reporting Facility
EDT Latitude Longitude Course Direction KTS MPH feet Rate Location/Type
Mon 04:49:00 PM 43.3619 -84.0057 160° South  Level Estimated
Mon 04:50:00 PM 43.3366 -83.9838 148° Southeast  Level FlightAware Approximate
Mon 04:51:00 PM 43.3080 -83.9718 160° South  Level Estimated
Mon 04:52:00 PM 43.2807 -83.9553 156° South  Level FlightAware Approximate
Mon 04:53:00 PM 43.2533 -83.9388 156° South  Level FlightAware Approximate
Mon 04:54:00 PM 43.2247 -83.9271 163° South  Level Estimated
Mon 04:55:00 PM 43.1965 -83.9134 161° South  Level FlightAware Approximate
Mon 04:56:00 PM 43.1683 -83.8997 161° South  Level FlightAware Approximate
Mon 04:57:00 PM 43.1401 -83.8861 161° South  Level FlightAware Approximate
Mon 04:58:00 PM 43.1115 -83.8746 160° South  Level Estimated
Mon 04:58:03 PM 42.9019 -83.7664 165° South 171 197 5,200  Level Cleveland Center
Mon 04:59:00 PM 43.0835 -83.8603 160° South  Level FlightAware Approximate
Mon 04:59:10 PM 42.8525 -83.7411 159° South 170 196 5,200  Level Cleveland Center
Mon 05:00:00 PM 43.0555 -83.8461 160° South  Level FlightAware Approximate
Mon 05:00:04 PM 42.8092 -83.7275 167° South 173 199 5,200  Level Cleveland Center
Mon 05:01:00 PM 43.0275 -83.8318 160° South  Level FlightAware Approximate
Mon 05:01:05 PM 42.7617 -83.7111 166° South 171 197 5,200  Level Cleveland Center
Mon 05:02:00 PM 42.9995 -83.8176 160° South  Level FlightAware Approximate
Mon 05:02:12 PM 42.7119 -83.6944 166° South 171 197 5,100  Level Cleveland Center
Mon 05:03:13 PM 42.6686 -83.6781 164° South 167 192 5,100  Level Cleveland Center
Mon 05:04:14 PM 42.6192 -83.6589 164° South 169 194 5,100 -197 Level Cleveland Center
Mon 05:05:15 PM 42.5758 -83.6425 164° South 172 198 4,700 -590 Descending Cleveland Center
Mon 05:06:16 PM 42.5222 -83.6231 165° South 188 216 3,900 -744 Descending Cleveland Center
Mon 05:07:16 PM 42.4725 -83.6067 166° South 182 209 3,200 -545 Descending Cleveland Center
Mon 05:08:17 PM 42.4253 -83.5847 161° South 176 203 2,800 -344 Descending Cleveland Center
Mon 05:09:18 PM 42.3819 -83.5628 159° South 172 198 2,500 -344 Descending Cleveland Center
Mon 05:10:19 PM 42.3347 -83.5411 161° South 166 191 2,100 -295 Descending Cleveland Center
Mon 05:11:20 PM 42.2911 -83.5278 167° South 157 181 1,900 -443 Descending Cleveland Center
Mon 05:12:21 PM 42.2558 -83.5206 171° South 104 120 1,200 -689 Descending Cleveland Center

Login

Don't have an account? Register now (free) for customized features, flight alerts, and more!